PROFILE

 METAR AND TAF INFORMATION
ADDS - METARS form results

(1238 UTC 16 October 2019)
http://aviationweather.gov/metar/data/
 
ENBR 161220Z 15010KT 9999 FEW010 SCT025 BKN045 12/09 Q1004 NOSIG RMK WIND 1200FT 14017KT
ENBR 161150Z 15008KT 9999 VCSH FEW008 SCT033 BKN043 11/09 Q1004 NOSIG RMK WIND 1200FT 14017KT
TAF COR ENBR 1612/1712 16010KT 9999 FEW010 BKN025 TEMPO 1612/1616 4000 -RA BKN012 BECMG 1618/1621 VRB05KT TEMPO 1710/1712 11010KT RA 

 AIRPORT MAP

 RUNWAY INFORMATION
Runway 17 Runway length 9810 ft Runway width 148 ft
Runway elevation 165 ft Runway displaced threshold 886 ft Runway heading 171
Runway 35 Runway length 9810 ft Runway width 148 ft
Runway elevation 146 ft Runway displaced threshold 889 ft Runway heading 351

 AIRPORT FREQUENCIES
Type APP Name RADAR Frequency 121 MHZ
Type ARR Name ARR Frequency 125 MHZ
Type ATIS Name ATIS Frequency 125.25 MHZ
Type DIR Name DIRECTOR Frequency 118.85 MHZ
Type GND Name GND Frequency 121.9 MHZ
Type TWR Name TWR Frequency 119.1 MHZ

 AIRPORT NEAR NAVIGATION AIDS
Type NDB Name Askoy Frequency 360 KHZ
Type NDB Name Bratta Frequency 336 KHZ
Type TACAN Name Flesland Frequency 114500 KHZ
Type VOR-DME Name Flesland Frequency 115550 KHZ
Type VOR-DME Name Vollo Frequency 114850 KHZ